Location: PACMO
(41.3967°N, 90.3760°W)
Time: 07:51:57
(UTC-05:00)

NOAA 19 - Visible Passes

Search period start: 19 April 2015 00:00
Search period end: 29 April 2015 00:00
Orbit: 843 x 863 km, 99.0° (Epoch: 18 April)

Date Brightness Start Highest point End Pass type
(mag) Time Alt. Az. Time Alt. Az. Time Alt. Az.
19 Apr 7.3 02:16:29 10° NE 02:20:05 18° E 02:20:21 18° E visible
19 Apr 5.3 03:55:50 10° N 04:01:19 62° WNW 04:02:24 51° WSW visible
20 Apr 7.5 02:06:00 10° ENE 02:08:42 14° E 02:09:06 14° E visible
20 Apr 5.1 03:44:34 10° N 03:50:08 77° WNW 03:51:09 60° SW visible
20 Apr 7.2 05:28:09 10° NW 05:30:04 12° WNW 05:31:40 10° WNW visible
21 Apr 7.7 01:56:13 10° ENE 01:57:16 11° E 01:57:51 11° E visible
21 Apr 5.1 03:33:21 10° NNE 03:38:56 86° ESE 03:39:54 63° S visible
21 Apr 7.1 05:16:01 10° NNW 05:19:01 14° WNW 05:21:45 10° W visible
22 Apr 5.3 03:22:09 10° NNE 03:27:43 70° ESE 03:28:39 58° SSE visible
22 Apr 6.9 05:04:15 10° NNW 05:07:56 18° WNW 05:10:42 12° W visible
23 Apr 5.6 03:11:01 10° NNE 03:16:28 55° E 03:17:24 49° SE visible
23 Apr 6.6 04:52:38 10° NNW 04:56:51 22° WNW 04:59:27 16° W visible
24 Apr 6.0 02:59:55 10° NNE 03:05:13 44° E 03:06:08 41° SE visible
24 Apr 6.4 04:41:07 10° N 04:45:44 27° WNW 04:48:12 19° WSW visible
25 Apr 6.3 02:48:53 10° NNE 02:53:55 35° E 02:54:53 33° ESE visible
25 Apr 6.1 04:29:40 10° N 04:34:37 33° WNW 04:36:56 23° WSW visible
26 Apr 6.7 02:37:55 10° NE 02:42:37 28° E 02:43:37 27° ESE visible
26 Apr 5.8 04:18:17 10° N 04:23:28 40° WNW 04:25:40 28° WSW visible
27 Apr 7.0 02:27:03 10° NE 02:31:15 22° E 02:32:21 21° ESE visible
27 Apr 5.5 04:06:56 10° N 04:12:19 50° WNW 04:14:25 33° WSW visible
28 Apr 7.2 02:16:20 10° NE 02:19:53 18° E 02:21:05 17° ESE visible
28 Apr 5.3 03:55:38 10° N 04:01:08 63° WNW 04:03:09 38° SW visible
